TimeMST,TemperatureF,Dew PointF,Humidity,Sea Level PressureIn,VisibilityMPH,Wind Direction,Wind SpeedMPH,Gust SpeedMPH,PrecipitationIn,Events,Conditions,WindDirDegrees,DateUTC
12:15 AM,46.4,15.8,29,30.16,10.0,Calm,Calm,-,N/A,,Clear,0,2013-11-30 07:15:00
12:35 AM,44.6,17.6,34,30.16,10.0,SW,4.6,-,N/A,,Clear,220,2013-11-30 07:35:00
12:55 AM,42.8,17.6,36,30.16,10.0,West,3.5,-,N/A,,Clear,270,2013-11-30 07:55:00
1:15 AM,42.8,15.8,34,30.16,10.0,Calm,Calm,-,N/A,,Clear,0,2013-11-30 08:15:00
1:35 AM,42.8,15.8,34,30.16,10.0,SW,3.5,-,N/A,,Clear,230,2013-11-30 08:35:00
1:55 AM,42.8,15.8,34,30.16,10.0,Calm,Calm,-,N/A,,Clear,0,2013-11-30 08:55:00
2:15 AM,44.6,14.0,29,30.17,10.0,Calm,Calm,-,N/A,,Clear,0,2013-11-30 09:15:00
2:35 AM,42.8,17.6,36,30.16,10.0,WSW,6.9,-,N/A,,Clear,250,2013-11-30 09:35:00
2:55 AM,42.8,15.8,34,30.16,10.0,WSW,5.8,-,N/A,,Clear,240,2013-11-30 09:55:00
3:15 AM,41.0,15.8,36,30.16,10.0,West,3.5,-,N/A,,Clear,280,2013-11-30 10:15:00
3:35 AM,42.8,14.0,31,30.15,10.0,NW,12.7,-,N/A,,Clear,320,2013-11-30 10:35:00
3:55 AM,44.6,14.0,29,30.15,10.0,WNW,18.4,25.3,N/A,,Clear,290,2013-11-30 10:55:00
4:15 AM,42.8,14.0,31,30.16,10.0,WNW,10.4,-,N/A,,Clear,290,2013-11-30 11:15:00
4:35 AM,44.6,14.0,29,30.16,10.0,NW,10.4,-,N/A,,Clear,310,2013-11-30 11:35:00
4:55 AM,42.8,14.0,31,30.16,10.0,NW,9.2,-,N/A,,Clear,320,2013-11-30 11:55:00
5:47 AM,41.0,12.2,31,30.15,30.0,Calm,Calm,-,N/A,,Partly Cloudy,0,2013-11-30 12:47:00
6:47 AM,41.0,12.2,31,30.16,50.0,West,6.9,-,N/A,,Partly Cloudy,270,2013-11-30 13:47:00
7:47 AM,44.6,12.2,27,30.18,70.0,Calm,Calm,-,N/A,,Partly Cloudy,0,2013-11-30 14:47:00
9:55 AM,50.0,15.8,26,30.18,50.0,Variable,4.6,-,N/A,,Clear,0,2013-11-30 16:55:00
10:55 AM,55.4,14.0,20,30.18,50.0,Variable,4.6,-,N/A,,Clear,0,2013-11-30 17:55:00
11:47 AM,57.2,12.2,17,30.16,50.0,Variable,4.6,-,N/A,,Partly Cloudy,0,2013-11-30 18:47:00
12:47 PM,57.2,12.2,17,30.15,50.0,Calm,Calm,-,N/A,,Partly Cloudy,0,2013-11-30 19:47:00
1:48 PM,59.0,12.2,16,30.12,50.0,West,12.7,-,N/A,,Partly Cloudy,270,2013-11-30 20:48:00
2:47 PM,57.2,10.4,16,30.11,50.0,West,19.6,-,N/A,,Partly Cloudy,270,2013-11-30 21:47:00
3:56 PM,55.4,10.4,17,30.13,50.0,West,23.0,27.6,N/A,,Partly Cloudy,270,2013-11-30 22:56:00
4:47 PM,50.0,10.4,20,30.14,50.0,WNW,19.6,-,N/A,,Partly Cloudy,300,2013-11-30 23:47:00
5:50 PM,48.2,12.2,24,30.15,30.0,WNW,17.3,-,N/A,,Partly Cloudy,300,2013-12-01 00:50:00
6:52 PM,48.2,14.0,25,30.15,30.0,West,15.0,-,N/A,,Clear,280,2013-12-01 01:52:00
7:50 PM,42.8,15.8,34,30.16,30.0,West,4.6,-,N/A,,Clear,260,2013-12-01 02:50:00
8:50 PM,41.0,15.8,36,30.15,30.0,Calm,Calm,-,N/A,,Clear,0,2013-12-01 03:50:00
9:45 PM,41.0,15.8,36,30.15,15.0,NNW,3.5,-,N/A,,Clear,340,2013-12-01 04:45:00
10:15 PM,41.0,17.6,39,30.16,10.0,Calm,Calm,-,N/A,,Clear,0,2013-12-01 05:15:00
10:35 PM,42.8,19.4,39,30.16,10.0,NNE,5.8,-,N/A,,Clear,20,2013-12-01 05:35:00
10:55 PM,39.2,21.2,49,30.16,10.0,NNE,9.2,-,N/A,,Clear,20,2013-12-01 05:55:00
11:15 PM,37.4,21.2,52,30.16,10.0,North,6.9,-,N/A,,Clear,350,2013-12-01 06:15:00
11:35 PM,37.4,21.2,52,30.16,10.0,SSW,3.5,-,N/A,,Clear,200,2013-12-01 06:35:00
11:55 PM,35.6,21.2,56,30.16,10.0,West,5.8,-,N/A,,Clear,260,2013-12-01 06:55:00